Tracking 30313 objects as of 22-Apr-2025
HD Live streaming from Space Station
objects crossing your sky now

STARLINK-33731

Track STARLINK-33731 now!
10-day predictions
STARLINK-33731 is classified as:


NORAD ID: 63475
Int'l Code: 2025-070R
Perigee: 350.2 km
Apogee: 352.1 km
Inclination: 43.0 °
Period: 91.4 minutes
Semi major axis: 6722 km
RCS: Unknown
Launch date: April 6, 2025
Source: United States (US)
Launch site: AIR FORCE EASTERN TEST RANGE (AFETR)
Your satellite tracking list
Your tracking list is empty




NASA's NSSDC Master Catalog

Two Line Element Set (TLE):
1 63475U 25070R   25111.91668981 -.01195438  00000-0 -87094-2 0  9990
2 63475  42.9997 281.1139 0001437 276.8040 252.0922 15.75209865  3726
Source of the keplerian elements: AFSPC